FW5216 Weather Reports


time (UTC)temp
C
wind
direction
speed
KPH
gust
KPH
rain 1hr
cm
rain 24hr
cm
rain mn
cm
humidity
%
barometer
mb
20260510134559 10 92 0.0 0.0 0.48 0.48 0.48 94 1012.1
20260510133058 11 215 0.0 0.0 0.20 0.20 0.20 93 1012.0
20260510131555 11 113 0.0 0.0 0.20 0.20 0.20 92 1011.5
20260510130054 11 142 0.0 0.0 0.05 0.05 0.05 90 1011.7
20260510124605 11 106 0.0 8.0 0.00 0.00 0.00 89 1011.4
20260510123049 11 94 0.0 0.0 0.00 0.00 0.00 89 1011.0
20260510121549 11 53 0.0 11.3 0.00 0.00 0.00 89 1011.0
20260510120048 11 125 0.0 4.8 0.00 0.00 0.00 90 1011.0
20260510114547 11 204 0.0 0.0 0.00 0.00 0.00 89 1011.0
20260510113047 11 162 0.0 0.0 0.00 0.00 0.00 89 1010.9
20260510111545 11 207 0.0 0.0 0.00 0.00 0.00 89 1010.9
20260510110045 11 93 0.0 11.3 0.00 0.00 0.00 89 1010.6
20260510104545 10 111 0.0 0.0 0.00 0.00 0.00 91 1010.4
20260510103041 10 69 0.0 0.0 0.00 0.00 0.00 91 1010.2
20260510101541 10 60 0.0 0.0 0.00 0.00 0.00 91 1010.5
20260510100037 10 90 0.0 0.0 0.00 0.00 0.00 91 1009.6
20260510094537 10 90 0.0 0.0 0.00 0.00 0.00 91 1009.3
20260510093036 10 68 0.0 0.0 0.00 0.00 0.00 91 1009.7
20260510091537 10 134 0.0 0.0 0.00 0.00 0.00 90 1009.5
20260510090033 10 82 0.0 0.0 0.00 0.00 0.00 89 1009.3
20260510084535 10 132 0.0 0.0 0.00 0.00 0.00 88 1009.2
20260510083030 11 111 0.0 0.0 0.00 0.00 0.00 88 1009.1
20260510081534 11 94 0.0 0.0 0.00 0.00 0.00 87 1009.3
20260510080028 11 83 0.0 0.0 0.00 0.00 0.00 87 1009.6
20260510074527 11 65 0.0 0.0 0.00 0.00 0.00 86 1009.7
20260510073025 11 166 0.0 12.9 0.00 0.00 0.00 84 1009.4
20260510071524 11 105 0.0 16.1 0.00 0.00 0.00 84 1009.3
20260510070027 11 120 0.0 6.4 0.00 0.00 0.00 85 1009.0
20260510064531 11 104 1.6 19.3 0.00 0.00 0.00 83 1009.4
20260510063022 12 108 0.0 19.3 0.00 0.00 0.00 82 1009.3
20260510061622 12 82 0.0 1.6 0.00 0.00 0.00 82 1009.3
20260510060020 12 122 0.0 3.2 0.00 0.00 0.00 81 1009.2
20260510054519 12 91 1.6 17.7 0.00 0.00 0.00 81 1009.3
20260510053023 12 105 0.0 17.7 0.00 0.00 0.00 80 1009.4
20260510051518 12 143 3.2 22.5 0.00 0.00 0.00 80 1009.4
20260510050015 11 84 0.0 24.1 0.00 0.00 0.00 80 1009.2
20260510044516 11 119 1.6 25.7 0.00 0.00 0.00 81 1009.2
20260510043009 11 114 0.0 0.0 0.00 0.00 0.00 82 1009.1
20260510041513 10 127 0.0 0.0 0.00 0.00 0.00 82 1009.1
20260510040003 10 113 0.0 0.0 0.00 0.00 0.00 83 1008.6
20260510034501 10 80 0.0 0.0 0.00 0.00 0.00 83 1008.8
20260510033134 10 137 0.0 0.0 0.00 0.00 0.00 82 1009.1
20260510031559 11 105 0.0 9.7 0.00 0.00 0.00 81 1009.3
20260510030057 11 98 0.0 0.0 0.00 0.00 0.00 81 1009.3
20260510024605 11 115 0.0 0.0 0.00 0.00 0.00 80 1009.4
20260510023057 11 135 0.0 0.0 0.00 0.00 0.00 80 1009.4
20260510021556 11 88 0.0 20.9 0.00 0.00 0.00 79 1009.1
20260510020057 11 85 0.0 1.6 0.00 0.00 0.00 79 1009.3
20260510014552 11 97 0.0 0.0 0.00 0.00 0.00 79 1009.6
20260510013052 11 108 0.0 0.0 0.00 0.00 0.00 79 1009.6
20260510011550 11 120 0.0 0.0 0.00 0.00 0.00 79 1009.6
20260510010048 11 108 0.0 0.0 0.00 0.00 0.00 79 1009.8
20260510004546 11 89 0.0 0.0 0.00 0.00 0.00 79 1009.9
20260510003059 11 88 0.0 0.0 0.00 0.00 0.00 79 1010.2
20260510001545 11 83 0.0 0.0 0.00 0.00 0.00 79 1010.1
20260510000046 11 80 0.0 0.0 0.00 0.00 0.00 79 1010.1
20260509234546 11 158 0.0 0.0 0.00 0.00 0.00 79 1010.2
20260509233043 11 84 0.0 0.0 0.00 0.00 0.00 78 1010.3
20260509231543 11 97 0.0 0.0 0.00 0.00 0.00 77 1010.2
20260509230049 11 89 0.0 0.0 0.00 0.00 0.00 77 1010.1
20260509224640 11 80 0.0 17.7 0.00 0.00 0.00 76 1010.1
20260509223046 11 97 0.0 1.6 0.00 0.00 0.00 76 1010.1
20260509221538 11 101 0.0 14.5 0.00 0.00 0.00 76 1010.2
20260509220036 11 84 0.0 14.5 0.00 0.00 0.00 76 1010.3
20260509214539 11 95 0.0 14.5 0.00 0.00 0.00 76 1010.3
20260509213034 11 77 0.0 24.1 0.00 0.00 0.00 76 1010.5
20260509211532 11 97 0.0 11.3 0.00 0.00 0.00 75 1010.6
20260509210031 11 121 0.0 1.6 0.00 0.00 0.00 74 1010.7
20260509204529 11 94 0.0 19.3 0.00 0.00 0.00 72 1010.7
20260509203035 12 135 0.0 17.7 0.00 0.00 0.00 73 1010.8
20260509201528 12 124 1.6 20.9 0.00 0.00 0.00 69 1010.6
20260509200027 12 122 0.0 17.7 0.00 0.00 0.00 67 1010.6
20260509194527 12 109 0.0 19.3 0.00 0.00 0.00 66 1010.7
20260509193023 12 91 0.0 0.0 0.00 0.00 0.00 66 1010.8
20260509191522 12 70 0.0 29.0 0.00 0.00 0.00 65 1010.9
20260509190022 12 84 0.0 20.9 0.00 0.00 0.00 62 1010.9
20260509184525 13 79 0.0 6.4 0.00 0.00 0.00 62 1011.1
20260509183018 13 87 0.0 29.0 0.00 0.00 0.00 60 1011.3
20260509181516 13 98 0.0 20.9 0.00 0.00 0.00 58 1011.2
20260509180015 13 131 1.6 24.1 0.00 0.00 0.00 57 1011.3
20260509174515 13 171 0.0 14.5 0.00 0.00 0.00 54 1011.4
20260509173017 12 188 0.0 11.3 0.00 0.00 0.00 60 1011.4
20260509171513 13 175 0.0 11.3 0.00 0.00 0.00 59 1011.5
20260509170011 12 133 1.6 12.9 0.00 0.00 0.00 56 1011.6
20260509164509 12 193 0.0 6.4 0.00 0.00 0.00 55 1011.9
20260509163006 13 281 0.0 0.0 0.00 0.00 0.00 51 1012.1
20260509161506 14 165 0.0 0.0 0.00 0.00 0.00 49 1012.2
20260509160006 15 141 0.0 8.0 0.00 0.00 0.00 44 1012.3
20260509154502 14 96 0.0 11.3 0.00 0.00 0.00 43 1012.6
20260509153110 13 150 0.0 3.2 0.00 0.00 0.00 43 1012.8
20260509151607 14 243 0.0 8.0 0.00 0.00 0.00 43 1013.1
20260509150054 13 149 0.0 16.1 0.00 0.00 0.00 43 1013.1
20260509144555 13 188 0.0 1.6 0.00 0.00 0.00 45 1013.2
20260509143104 13 124 0.0 9.7 0.00 0.00 0.00 46 1013.4
20260509141548 12 163 0.0 1.6 0.00 0.00 0.00 47 1013.5
20260509140047 12 154 0.0 12.9 0.00 0.00 0.00 46 1013.4